Location: McFarlands Corners
(41.4117°N, 81.3382°W)
Time: 12:50:23
(UTC+00:00)

Courier 1B Rocket - Pass Details

Date: 23 February 2026
Orbit: 920 x 1201 km, 28.2° (Epoch: 10 March)

Event Time Altitude Azimuth Distance (km) Brightness Sun altitude
Rises 00:40:32 0° 246° (WSW) 3,551 9.1 -18.1°
Reaches altitude 10° 00:43:37 10° 233° (SW) 2,602 7.9 -18.7°
Maximum altitude 00:48:28 24° 181° (S) 1,804 6.4 -19.6°
Enters shadow 00:51:12 18° 147° (SSE) 2,103 6.4 -20.1°
Drops below altitude 10° 00:53:23 10° 130° (SE) 2,643 - -20.5°
Sets 00:56:32 0° 117° (ESE) 3,620 - -21.1°
